Rogers, AR

12:21 AM CST on January 17, 2017 (GMT -0600)
Rogers Municipal-Carter

Weather History for KROG - October, 2012

Change the Weather History Date:

Thursday, October 11, 2012

  Actual Average Record
Temperature  
Mean Temperature 62 °F -  
Max Temperature 70 °F 68 °F 82 °F (2015)
Min Temperature 54 °F 47 °F 41 °F (2000)
Degree Days  
Heating Degree Days 3    
Growing Degree Days 12 (Base 50)    
Moisture  
Dew Point 50 °F    
Average Humidity 68    
Maximum Humidity 84    
Minimum Humidity 51    
Precipitation  
Precipitation 0.02 in - - ()
Sea Level Pressure  
Sea Level Pressure 30.14 in    
Wind  
Wind Speed 7 mph (SSE)    
Max Wind Speed 10 mph    
Max Gust Speed -    
Visibility 10 miles    
Events Rain    
Averages and records for this station are not official NWS values.
T = Trace of Precipitation, MM = Missing Value Source: NWS Daily Summary

Daily Weather History Graph

Daily Weather History Graph

Search for Another Location

Airport or City:

Trip Planner

Search our weather history database for the weather conditions in past years. The results will help you decide how hot, cold, wet, or windy it might be!

Date:

Astronomy

Oct. 11, 2012 Rise Set
Actual Time 7:20 AM CDT 6:44 PM CDT
Civil Twilight 6:54 AM CDT 7:10 PM CDT
Nautical Twilight 6:24 AM CDT 7:40 PM CDT
Astronomical Twilight 5:54 AM CDT 8:10 PM CDT
Moon 3:06 AM CDT (10/11) 4:16 PM CDT (10/11)
Length of Visible Light 12h 16m
Length of Day
11h 24m
Waning Crescent, 18% of the Moon is Illuminated
Oct 11
Waning Crescent
Oct 15
New
Oct 21
First Quarter
Oct 29
Full
Nov 6
Last Quarter

Hourly Weather History & Observations

Time (CDT) Temp. Dew Point Humidity Pressure Visibility Wind Dir Wind Speed Gust Speed Precip Events Conditions
1:57 AM 57.0 °F 41.0 °F 55% 30.14 in 10.0 mi East 5.8 mph - N/A   Overcast
2:20 AM 57.2 °F 41.0 °F 55% 30.17 in 10.0 mi SSE 5.8 mph - N/A   Overcast
2:23 AM 57.2 °F 41.0 °F 55% 30.17 in 10.0 mi SE 5.8 mph - N/A   Overcast
2:35 AM 57.2 °F 41.0 °F 55% 30.17 in 10.0 mi SE 5.8 mph - N/A   Overcast
2:57 AM 57.0 °F 42.1 °F 57% 30.15 in 10.0 mi SE 5.8 mph - N/A   Overcast
3:06 AM 57.2 °F 41.0 °F 55% 30.16 in 10.0 mi SSE 6.9 mph - N/A   Overcast
3:35 AM 57.2 °F 41.0 °F 55% 30.15 in 10.0 mi SE 5.8 mph - N/A   Overcast
3:57 AM 57.9 °F 39.9 °F 51% 30.13 in 10.0 mi SE 8.1 mph - N/A   Overcast
4:19 AM 57.2 °F 41.0 °F 55% 30.15 in 10.0 mi SE 4.6 mph - N/A   Overcast
4:57 AM 57.9 °F 41.0 °F 53% 30.14 in 10.0 mi SE 4.6 mph - N/A   Overcast
5:57 AM 55.0 °F 46.0 °F 72% 30.15 in 10.0 mi ESE 4.6 mph - 0.00 in Rain Light Rain
6:57 AM 54.0 °F 48.0 °F 80% 30.16 in 10.0 mi SE 6.9 mph - 0.02 in   Overcast
7:57 AM 55.0 °F 48.0 °F 77% 30.17 in 10.0 mi SE 4.6 mph - 0.00 in   Overcast
8:57 AM 55.9 °F 48.0 °F 75% 30.17 in 10.0 mi SE 6.9 mph - N/A   Overcast
9:57 AM 57.9 °F 50.0 °F 75% 30.18 in 10.0 mi SSE 8.1 mph - N/A   Overcast
10:03 AM 57.2 °F 50.0 °F 77% 30.20 in 10.0 mi SSE 8.1 mph - N/A   Overcast
11:57 AM 61.0 °F 53.1 °F 75% 30.17 in 10.0 mi SE 4.6 mph - N/A   Overcast
12:57 PM 63.0 °F 55.0 °F 75% 30.16 in 10.0 mi South 9.2 mph - N/A   Overcast
1:57 PM 64.0 °F 57.0 °F 78% 30.14 in 10.0 mi South 9.2 mph - N/A   Overcast
3:57 PM 68.0 °F 60.1 °F 76% 30.10 in 10.0 mi South 9.2 mph - N/A   Overcast
4:06 PM 68.0 °F 60.8 °F 78% 30.11 in 10.0 mi South 9.2 mph - N/A   Overcast
4:57 PM 69.1 °F 60.1 °F 73% 30.09 in 10.0 mi South 9.2 mph - N/A   Overcast
5:39 PM 69.8 °F 60.8 °F 73% 30.10 in 10.0 mi South 9.2 mph - N/A   Scattered Clouds
5:57 PM 70.0 °F 61.0 °F 73% 30.08 in 10.0 mi South 10.4 mph - N/A   Partly Cloudy
6:57 PM 69.1 °F 62.1 °F 78% 30.08 in 10.0 mi South 9.2 mph - N/A   Partly Cloudy
8:57 PM 66.9 °F 62.1 °F 84% 30.12 in 10.0 mi ESE 3.5 mph - N/A   Overcast
10:57 PM 66.9 °F 62.1 °F 84% 30.16 in 10.0 mi SSE 6.9 mph - N/A   Overcast